Showing default

ASTRA 2G, 40364

Orbit data source: Space-Track

ASTRA 2G, 40364 is a payload satellite owned by SES (LU) in GEO that was launched on Sat, 27 Dec 2014 UTC via a PROTON-M/BRIZ-M launch vehicle from the Tyuratam Missile And Space Complex (TTMTR). Payload-class satellites include a variety of spacecraft equipped with specific instruments for various scientific and technological missions. These include communications satellites like Starlink; space stations such as the ISS; scientific satellites like the Hubble; Earth observation satellites from companies like Planet Labs, Umbra, and HawkEye 360; GPS; miniature CubeSats for education and research; and military/defense satellites.

Not visible in the next 10 days
Identifier
40364, 2014-089A
Orbit
GEO
Country
Flag of LULU / SES
Related business
Manufacturer
Airbus/Toulouse
Mission
Operational Commercial Communications
Bus & Motor
EUROSTAR 3000, R-4D?
Mass
6,002 kg wet, ~3,000 kg dry
Launch date (UTC)
2014-12-27 (11 years ago)
Launch vehicle
PROTON-M/BRIZ-M
Launch site
Tyuratam Missile And Space Complex (TTMTR)
Object type
Payload
Rocket body
Debris
Shape & HBR
Box + 2 Pan, 19.9 m
Radar Cross Section
50.725 m², Large (>1 m²)

Expand to show TLE details & history
Last TLE update: 16 hours ago

TLE from 16 hours ago
0 ASTRA 2G
1 40364U 14089A   25340.89905824  .00000155  00000-0  00000-0 0  9999
2 40364   0.0543  22.4527 0001013 341.0524  64.2957  1.00270316 40048
Epoch: 2025-12-06T21:34Z
TLE epoch observation values (Epoch: 2025-12-06T21:34:38.631Z)
Latitude
0.06038°
Longitude
28.21977°
Altitude
35,784.633 km
Speed
3.075 km/s
True Right ascension
04h 31m 12s
True Declination
0° 03' 37"
Sunlit
Object was in daylight at epoch
Visualization orbit readout
Latitude
Unknown
Longitude
Unknown
Altitude
Unknown
Speed
Unknown
Apparent Right ascension
Unknown
Apparent Declination
Unknown
Sunlit
N/A
Visualization observer readout
Local Sidereal Time
12:00:25
Azimuth
Unknown
Elevation
Unknown
Doppler factor
Unknown
Orbital elements
Apogee altitude
35,792.349 km
Perigee altitude
35,783.806 km
Semi-major axis
42,166.214 km
Eccentricity
0.0001
Inclination
0.0543°
RAAN
22.4527°
Arg. of periapsis
341.0524°
True anomaly
64.30616°
Mean anomaly
64.2957°
Eccentric anomaly
64.30093°
Mean motion
0.25067 °/min
Orbital period
1,436.17 mins
BSTAR
0
Loading maneuver chart data...
Computing Atmospheric mass density...
Loading historical data...
Loading historical data...
Loading historical data...
Loading historical data...
Loading historical data...
Loading historical data...
Loading historical data...
Other satellites on launch #89 in the year 2014 (2014-12-27 UTC)

Documentation

Showing up to 5 results
|